San Antonio Stinson, TX

12:15 PM CDT on September 25, 2017 (GMT -0500)
Stinson Municipal

Weather History for KSSF - August, 2014

Change the Weather History Date:

Monday, August 18, 2014

  Actual Average Record
Temperature  
Mean Temperature 90 °F -  
Max Temperature 102 °F 93 °F 104 °F (2011)
Min Temperature 79 °F 72 °F 71 °F (2004)
Cooling Degree Days 24    
Growing Degree Days 40 (Base 50)    
Moisture  
Dew Point 71 °F    
Average Humidity 62    
Maximum Humidity 85    
Minimum Humidity 29    
Precipitation  
Precipitation 0.00 in - - ()
Sea Level Pressure  
Sea Level Pressure 29.87 in    
Wind  
Wind Speed 10 mph (SSE)    
Max Wind Speed 22 mph    
Max Gust Speed 29 mph    
Visibility 10 miles    
Events      
Averages and records for this station are not official NWS values.
T = Trace of Precipitation, MM = Missing Value Source: NWS Daily Summary

Daily Weather History Graph

Daily Weather History Graph

Search for Another Location

Airport or City:

Trip Planner

Search our weather history database for the weather conditions in past years. The results will help you decide how hot, cold, wet, or windy it might be!

Date:

Astronomy

Aug. 18, 2014 Rise Set
Actual Time 7:03 AM CDT 8:11 PM CDT
Civil Twilight 6:39 AM CDT 8:35 PM CDT
Nautical Twilight 6:09 AM CDT 9:05 PM CDT
Astronomical Twilight 5:39 AM CDT 9:35 PM CDT
Moon 1:17 AM CDT (8/18) 3:08 PM CDT (8/18)
Length of Visible Light 13h 56m
Length of Day
13h 07m
Last Quarter, 38% of the Moon is Illuminated
Aug 18
Last Quarter
Aug 25
New
Sep 2
First Quarter
Sep 8
Full
Sep 15
Last Quarter

Hourly Weather History & Observations

Time (CDT) Temp. Heat Index Dew Point Humidity Pressure Visibility Wind Dir Wind Speed Gust Speed Precip Events Conditions
12:53 AM 82.0 °F 87.4 °F 73.0 °F 74% 29.90 in 10.0 mi SSE 10.4 mph - N/A   Clear
1:53 AM 81.0 °F 86.2 °F 73.9 °F 79% 29.90 in 10.0 mi South 11.5 mph 18.4 mph N/A   Mostly Cloudy
2:53 AM 80.1 °F 84.5 °F 73.9 °F 81% 29.89 in 10.0 mi SSE 9.2 mph - N/A   Overcast
3:53 AM 80.1 °F 84.5 °F 73.9 °F 81% 29.89 in 10.0 mi SSE 5.8 mph - N/A   Mostly Cloudy
4:53 AM 80.1 °F 85.1 °F 75.0 °F 85% 29.88 in 10.0 mi ESE 5.8 mph - N/A   Overcast
5:53 AM 79.0 °F - 73.9 °F 84% 29.89 in 10.0 mi SE 5.8 mph - N/A   Mostly Cloudy
6:53 AM 79.0 °F - 73.9 °F 84% 29.90 in 10.0 mi SE 4.6 mph - N/A   Overcast
7:08 AM 80.1 °F 84.5 °F 73.9 °F 81% 29.95 in 10.0 mi SE 5.8 mph - N/A   Overcast
7:50 AM 80.6 °F 85.4 °F 73.4 °F 79% 29.95 in 10.0 mi SE 6.9 mph - N/A   Overcast
7:53 AM 80.1 °F 84.5 °F 73.9 °F 81% 29.91 in 10.0 mi SE 6.9 mph - N/A   Overcast
8:00 AM 80.1 °F 84.5 °F 73.9 °F 81% 29.95 in 10.0 mi SSE 6.9 mph - N/A   Mostly Cloudy
8:53 AM 82.0 °F 87.9 °F 73.9 °F 76% 29.92 in 10.0 mi SSE 8.1 mph - N/A   Mostly Cloudy
9:05 AM 82.9 °F 89.4 °F 73.9 °F 74% 29.96 in 10.0 mi South 10.4 mph - N/A   Overcast
9:53 AM 86.0 °F 93.0 °F 73.0 °F 65% 29.92 in 10.0 mi South 13.8 mph - N/A   Scattered Clouds
10:53 AM 89.1 °F 94.1 °F 70.0 °F 53% 29.91 in 10.0 mi South 10.4 mph - N/A   Clear
11:53 AM 93.0 °F 99.0 °F 70.0 °F 47% 29.91 in 10.0 mi South 10.4 mph 19.6 mph N/A   Scattered Clouds
12:53 PM 95.0 °F 100.7 °F 69.1 °F 43% 29.88 in 10.0 mi South 11.5 mph 18.4 mph N/A   Scattered Clouds
1:53 PM 98.1 °F 102.4 °F 66.9 °F 36% 29.85 in 10.0 mi SSE 12.7 mph - N/A   Partly Cloudy
2:53 PM 98.1 °F 101.8 °F 66.0 °F 35% 29.82 in 10.0 mi SSE 12.7 mph 20.7 mph N/A   Partly Cloudy
3:53 PM 99.0 °F 101.7 °F 64.0 °F 32% 29.79 in 10.0 mi SSE 11.5 mph 19.6 mph N/A   Scattered Clouds
4:53 PM 100.9 °F 103.3 °F 63.0 °F 29% 29.76 in 10.0 mi South 18.4 mph 25.3 mph N/A   Partly Cloudy
5:53 PM 99.0 °F 100.5 °F 63.0 °F 30% 29.76 in 10.0 mi SE 11.5 mph 18.4 mph N/A   Partly Cloudy
6:53 PM 95.0 °F 100.7 °F 69.1 °F 43% 29.77 in 10.0 mi SSE 21.9 mph 28.8 mph N/A   Partly Cloudy
7:53 PM 91.0 °F 96.6 °F 70.0 °F 50% 29.79 in 10.0 mi SSE 17.3 mph 27.6 mph N/A   Clear
8:53 PM 89.1 °F 95.0 °F 71.1 °F 55% 29.81 in 10.0 mi SSE 15.0 mph 24.2 mph N/A   Clear
9:53 PM 86.0 °F 91.5 °F 71.1 °F 61% 29.82 in 10.0 mi SE 9.2 mph - N/A   Clear
11:53 PM 84.0 °F 89.0 °F 71.1 °F 65% 29.86 in 10.0 mi SE 8.1 mph - N/A   Clear